Location: Melizzano
(41.1500°N, 14.5000°E)
Time: 09:14:27
(UTC+00:00)

Cosmos 2263 - Pass Details

Date: 11 May 2021
Orbit: 830 x 866 km, 70.9° (Epoch: 15 June)

Event Time Altitude Azimuth Distance (km) Brightness Sun altitude
Exits shadow 22:43:23 68° 20° (NNE) 931 4.4 -30.6°
Drops below altitude 10° 22:48:23 10° 24° (NNE) 2,515 7.4 -30.7°
Sets 22:50:52 0° 24° (NNE) 3,457 8.3 -30.7°
